Location: Marcé
(47.5801°N, 0.3280°W)
Time: 22:33:47
(UTC+01:00)

S-56A Canister/Altair - Pass Details

Date: 04 December 2021
Orbit: 633 x 2499 km, 38.9° (Epoch: 16 January)

Event Time Altitude Azimuth Distance (km) Brightness Sun altitude
Rises 04:15:48 0° 264° (W) 4,199 - -42.2°
Reaches altitude 10° 04:19:22 10° 256° (WSW) 2,926 - -41.6°
Maximum altitude 04:25:12 32° 196° (SSW) 1,411 - -40.7°
Drops below altitude 10° 04:29:38 10° 133° (SE) 2,192 - -39.9°
Exits shadow 04:30:17 - 129° (SE) 2,410 10.5 -39.8°
Sets 04:31:57 0° 122° (ESE) 3,006 11.1 -39.5°
